User: anonymous   Login
Location: Unspecified
(0.0000°N, 0.0000°E)
Time: 00:46:13
(UTC+00:00)
Language:

TBA - TO BE ASSIGNED - Orbit

View from above orbital plane
View from above orbital plane
View from above satellite
View from above satellite

Ground track
Ground track

The orbit is defined by the following mean orbital elements,

1 67902U          26145.37407399 +.00000000 +00000-0 +76100-3 0 00004
2 67902  97.2834  78.9518 0002347 108.5728 251.5770 15.33451187    09
Epoch (UTC): 25 May 2026 08:58:39
Eccentricity: 0.0002347
inclination: 97.2834°
perigee height: 464 km
apogee height: 467 km
right ascension of ascending node: 78.9518°
argument of perigee: 108.5728°
revolutions per day: 15.33451187
mean anomaly at epoch: 251.5770°

The dashed part of the orbit path shows where the satellite is in the earth's shadow,  

DLR